Tracking 30743 objects as of 22-Jun-2025
HD Live streaming from Space Station
objects crossing your sky now

CZ-3B DEB

Track CZ-3B DEB now!


NORAD ID: 40193
Int'l Code: 2011-077S
Perigee: 861.3 km
Apogee: 42,100.4 km
Inclination: 25.8 °
Period: 771.0 minutes
Semi major axis: 27851 km
RCS: Unknown
Launch date: December 19, 2011
Source: People's Republic of China (PRC)
Launch site: Xichang Space Center, China (XSC)

Note: This is SATELLITE DEBRIS
Your satellite tracking list
Your tracking list is empty




NASA's NSSDC Master Catalog

Two Line Element Set (TLE):
1 40193U 11077S   25170.09859987 -.00000167  00000-0 -75740-2 0  9994
2 40193  25.8396 123.7947 7403306 180.6624 177.1553  1.86776792 69372
Source of the keplerian elements: AFSPC